Eielson AFB, AK

1:13 PM AKST on December 06, 2016 (GMT -0900)
Eielson Air Force Base

Weather History for PAEI - January, 2013

Change the Weather History Date:

Thursday, January 3, 2013

  Actual Average Record
Temperature  
Mean Temperature 18 °F -  
Max Temperature 28 °F -4 °F 73 °F (1999)
Min Temperature 8 °F -20 °F -58 °F (1975)
Degree Days  
Heating Degree Days 47    
Moisture  
Dew Point 8 °F    
Average Humidity 78    
Maximum Humidity 90    
Minimum Humidity 52    
Precipitation  
Precipitation 0.00 in - - ()
Sea Level Pressure  
Sea Level Pressure 29.63 in    
Wind  
Wind Speed 3 mph (East)    
Max Wind Speed 10 mph    
Max Gust Speed -    
Visibility 10 miles    
Events      
Averages and records for this station are not official NWS values.
T = Trace of Precipitation, MM = Missing Value Source: NWS Daily Summary

Daily Weather History Graph

Daily Weather History Graph

Search for Another Location

Airport or City:

Trip Planner

Search our weather history database for the weather conditions in past years. The results will help you decide how hot, cold, wet, or windy it might be!

Date:

Astronomy

Jan. 03, 2013 Rise Set
Actual Time 10:45 AM AKST 3:01 PM AKST
Civil Twilight 9:26 AM AKST 4:20 PM AKST
Nautical Twilight 8:17 AM AKST 5:29 PM AKST
Astronomical Twilight 7:16 AM AKST 6:30 PM AKST
Moon No Moon Rise 11:11 AM AKST (1/3)
Length of Visible Light 6h 53m
Length of Day
4h 16m
Waning Gibbous, 64% of the Moon is Illuminated
Jan 3
Waning Gibbous
Jan 4
Last Quarter
Jan 11
New
Jan 18
First Quarter
Jan 26
Full

Hourly Weather History & Observations

Time (AKST) Temp. Windchill Dew Point Humidity Pressure Visibility Wind Dir Wind Speed Gust Speed Precip Events Conditions
12:55 AM 8.2 °F 1.6 °F 4.8 °F 86% 29.58 in 10.0 mi North 3.5 mph - N/A   Scattered Clouds
1:55 AM 11.1 °F - 8.6 °F 90% 29.58 in 10.0 mi Calm Calm - N/A   Clear
2:55 AM 8.1 °F - 4.6 °F 86% 29.58 in 10.0 mi Calm Calm - N/A   Clear
3:55 AM 9.5 °F - 6.3 °F 87% 29.59 in 10.0 mi Calm Calm - N/A   Scattered Clouds
4:55 AM 9.0 °F - 5.2 °F 85% 29.59 in 10.0 mi Calm Calm - N/A   Clear
5:55 AM 18.1 °F 6.3 °F 12.9 °F 80% 29.59 in 10.0 mi SSE 10.4 mph - N/A   Clear
6:55 AM 28.8 °F 20.9 °F 13.3 °F 52% 29.60 in 10.0 mi SE 8.1 mph - N/A   Clear
7:55 AM 25.0 °F 16.3 °F 14.0 °F 63% 29.61 in 10.0 mi SE 8.1 mph - N/A   Clear
8:55 AM 26.6 °F 17.5 °F 13.8 °F 59% 29.61 in 10.0 mi SE 9.2 mph - N/A   Clear
9:55 AM 28.8 °F - 13.1 °F 52% 29.63 in 10.0 mi Calm Calm - N/A   Clear
10:55 AM 12.7 °F - 8.6 °F 84% 29.65 in 10.0 mi Calm Calm - N/A   Clear
11:55 AM 11.8 °F 1.3 °F 6.3 °F 78% 29.66 in 10.0 mi North 6.9 mph - N/A   Clear
12:55 PM 12.7 °F - 8.2 °F 82% 29.67 in 10.0 mi Calm Calm - N/A   Clear
1:55 PM 12.4 °F - 7.9 °F 82% 29.67 in 10.0 mi Calm Calm - N/A   Partly Cloudy
2:55 PM 10.6 °F - 7.2 °F 86% 29.68 in 10.0 mi Calm Calm - N/A   Clear
3:55 PM 9.9 °F - 5.9 °F 84% 29.67 in 10.0 mi Calm Calm - N/A   Clear
4:55 PM 9.1 °F - 5.2 °F 84% 29.68 in 10.0 mi Calm Calm - N/A   Clear
7:55 PM 11.1 °F - 6.8 °F 83% 29.65 in 10.0 mi Calm Calm - N/A   Clear
8:55 PM 11.3 °F 3.3 °F 7.2 °F 83% 29.65 in 10.0 mi Variable 4.6 mph - N/A   Clear
9:55 PM 14.4 °F 5.5 °F 8.8 °F 79% 29.65 in 10.0 mi NNW 5.8 mph - N/A   Clear
10:55 PM 15.4 °F - 9.0 °F 76% 29.65 in 10.0 mi Calm Calm - N/A   Clear
11:55 PM 10.4 °F 2.2 °F 6.1 °F 83% 29.66 in 10.0 mi Variable 4.6 mph - N/A   Clear